Weather History for Pierre, SD

Change the Weather History Date:

Sunday, December 9, 2012

  Actual Average Record
Temperature  
Mean Temperature 14 °F 23 °F  
Max Temperature 29 °F 33 °F 70 °F (1939)
Min Temperature -1 °F 13 °F -16 °F (1955)
Degree Days  
Heating Degree Days 51 42  
Month to date heating degree days 264 366  
Since 1 July heating degree days 1838 1986  
Cooling Degree Days 0 0  
Month to date cooling degree days 0 0  
Year to date cooling degree days 1112 868  
Moisture  
Dew Point 6 °F    
Average Humidity 83    
Maximum Humidity 92    
Minimum Humidity 73    
Precipitation  
Precipitation 0.01 in 0.02 in 0.29 in (2012)
Month to date precipitation 0.14 0.17  
Year to date precipitation 11.06 19.63  
Snow  
Snow 0.00 in 0.20 in 5.00 in (2012)
Month to date snowfall 2.0 1.6  
Since 1 July snowfall 4.2 7.9  
Snow Depth 4.00 in    
Sea Level Pressure  
Sea Level Pressure 30.19 in    
Wind  
Wind Speed 21 mph (NNW)    
Max Wind Speed 36 mph    
Max Gust Speed 43 mph    
Visibility 4 miles    
Events Fog , Rain , Snow    
T = Trace of Precipitation, MM = Missing Value Source: NWS Daily Summary

Daily Weather History Graph

Daily Weather History Graph

Search for Another Location

Airport:

Trip Planner

Search our weather history database for the weather conditions in past years. The results will help you decide how hot, cold, wet, or windy it might be!

Date:

Astronomy

Dec. 09, 2012 Rise Set
Actual Time 8:05 AM CST 5:01 PM CST
Civil Twilight 7:32 AM CST 5:34 PM CST
Nautical Twilight 6:56 AM CST 6:11 PM CST
Astronomical Twilight 6:20 AM CST 6:46 PM CST
Moon 3:33 AM CST (12/9) 2:15 PM CST (12/9)
Length of Visible Light 10h 02m
Length of Day
8h 55m
Waning Crescent, 18% of the Moon is Illuminated
Dec 9
Waning Crescent
Dec 13
New
Dec 19
First Quarter
Dec 28
Full
Jan 4
Last Quarter

Hourly Weather History & Observations

Time (CST) Temp. Windchill Dew Point Humidity Pressure Visibility Wind Dir Wind Speed Gust Speed Precip Events Conditions
12:22 AM 28.4 °F 16.2 °F 26.6 °F 93% 29.81 in 4.0 mi North 17.3 mph - 0.00 in Rain Light Freezing Rain
12:53 AM 28.0 °F 16.5 °F 26.1 °F 92% 29.87 in 5.0 mi North 15.0 mph - 0.00 in Rain Light Freezing Rain
1:13 AM 24.8 °F 9.3 °F 23.0 °F 93% 29.83 in 4.0 mi NNW 24.2 mph 31.1 mph 0.00 in Rain Light Freezing Rain
1:21 AM 24.8 °F 8.4 °F 21.2 °F 86% 29.83 in 3.0 mi NNW 27.6 mph 33.4 mph 0.00 in Snow Light Snow
1:34 AM 23.0 °F 6.3 °F 19.4 °F 86% 29.84 in 2.5 mi NNW 26.5 mph 38.0 mph 0.00 in Snow Light Snow
1:53 AM 19.9 °F 1.0 °F 18.0 °F 92% 29.92 in 1.0 mi North 31.1 mph 39.1 mph 0.00 in Snow Light Snow
2:10 AM 19.4 °F -0.0 °F 15.8 °F 86% 29.87 in 0.8 mi North 32.2 mph 40.3 mph 0.00 in Snow Light Snow
2:37 AM 17.6 °F -1.9 °F 14.0 °F 86% 29.89 in 0.5 mi North 29.9 mph 38.0 mph 0.00 in Fog , Snow Snow
2:53 AM 17.1 °F -1.0 °F 14.0 °F 88% 29.98 in 0.8 mi NNW 24.2 mph 35.7 mph 0.00 in Snow Light Snow
3:13 AM 15.8 °F -3.7 °F 12.2 °F 86% 29.93 in 0.8 mi NNW 27.6 mph 34.5 mph 0.00 in Snow Light Snow
3:53 AM 14.0 °F -6.2 °F 10.9 °F 88% 30.03 in 0.5 mi NNW 27.6 mph 40.3 mph 0.00 in Fog , Snow Snow
4:53 AM 12.9 °F -8.3 °F 9.0 °F 84% 30.07 in 0.5 mi NNW 29.9 mph 39.1 mph 0.01 in Fog Light Freezing Fog
5:53 AM 10.9 °F -11.0 °F 7.0 °F 84% 30.12 in 0.8 mi North 29.9 mph 38.0 mph 0.00 in Snow Light Snow
6:16 AM 10.4 °F -11.7 °F 6.8 °F 85% 30.06 in 0.8 mi North 29.9 mph 41.4 mph 0.00 in Snow Light Snow
6:53 AM 10.0 °F -11.9 °F 6.1 °F 84% 30.16 in 0.8 mi NNW 28.8 mph 41.4 mph 0.00 in Snow Light Snow
7:00 AM 10.4 °F -11.4 °F 6.8 °F 85% 30.09 in 0.8 mi NNW 28.8 mph 35.7 mph 0.00 in Snow Light Snow
7:53 AM 9.0 °F -12.6 °F 5.0 °F 84% 30.22 in 0.8 mi NNW 26.5 mph 36.8 mph 0.00 in Snow Light Snow
8:23 AM 8.6 °F -12.7 °F 5.0 °F 85% 30.15 in 0.2 mi NNW 25.3 mph 34.5 mph 0.00 in Fog , Snow Heavy Snow
8:53 AM 8.1 °F -14.9 °F 3.9 °F 83% 30.26 in 0.2 mi NNW 29.9 mph 35.7 mph 0.00 in Fog , Snow Heavy Snow
9:19 AM 8.6 °F -12.7 °F 3.2 °F 79% 30.18 in 0.5 mi NNW 25.3 mph 34.5 mph 0.00 in Fog , Snow Snow
9:30 AM 8.6 °F -13.1 °F 3.2 °F 79% 30.19 in 0.5 mi NNW 26.5 mph 35.7 mph 0.00 in Fog , Snow Snow
9:53 AM 9.0 °F -13.3 °F 3.9 °F 80% 30.30 in 0.5 mi NNW 28.8 mph 40.3 mph 0.00 in Snow Snow
10:33 AM 8.6 °F -13.8 °F 3.2 °F 79% 30.24 in 0.8 mi NNW 28.8 mph 36.8 mph 0.00 in Snow Light Snow
10:41 AM 8.6 °F -13.8 °F 3.2 °F 79% 30.24 in 1.0 mi NNW 28.8 mph 35.7 mph 0.00 in Snow Light Snow
10:51 AM 8.6 °F -13.4 °F 3.2 °F 79% 30.25 in 1.5 mi NNW 27.6 mph 34.5 mph 0.00 in Snow Blowing Snow
10:53 AM 8.1 °F -13.8 °F 3.9 °F 83% 30.33 in 1.5 mi NNW 26.5 mph 34.5 mph 0.00 in Snow Blowing Snow
11:19 AM 8.6 °F -13.4 °F 3.2 °F 79% 30.26 in 1.2 mi NNW 27.6 mph 35.7 mph 0.00 in Snow Light Snow
11:32 AM 8.6 °F -13.8 °F 3.2 °F 79% 30.26 in 1.2 mi NNW 28.8 mph 35.7 mph 0.00 in Snow Light Snow
11:43 AM 8.6 °F -12.7 °F 3.2 °F 79% 30.26 in 0.8 mi NNW 25.3 mph 36.8 mph 0.00 in Snow Light Snow
11:50 AM 8.6 °F -13.1 °F 3.2 °F 79% 30.25 in 1.2 mi NNW 26.5 mph 34.5 mph 0.00 in Snow Light Snow
11:53 AM 9.0 °F -13.0 °F 3.9 °F 80% 30.34 in 1.0 mi NNW 27.6 mph 34.5 mph 0.00 in Snow Light Snow
12:45 PM 8.6 °F -13.1 °F 3.2 °F 79% 30.26 in 2.5 mi NNW 26.5 mph 33.4 mph 0.00 in Snow Blowing Snow
12:53 PM 9.0 °F -11.4 °F 3.9 °F 80% 30.34 in 3.0 mi NNW 23.0 mph 33.4 mph 0.00 in Snow Blowing Snow
1:03 PM 8.6 °F -13.1 °F 3.2 °F 79% 30.26 in 3.0 mi NNW 26.5 mph - N/A Snow Blowing Snow
1:11 PM 8.6 °F -13.8 °F 3.2 °F 79% 30.26 in 2.5 mi NW 28.8 mph 32.2 mph N/A Snow Blowing Snow
1:19 PM 8.6 °F -12.7 °F 3.2 °F 79% 30.26 in 3.0 mi NNW 25.3 mph - N/A Snow Blowing Snow
1:40 PM 10.4 °F -10.7 °F 5.0 °F 79% 30.26 in 2.5 mi NNW 26.5 mph - 0.00 in Snow Light Snow
1:48 PM 10.4 °F -9.5 °F 5.0 °F 79% 30.26 in 4.0 mi NNW 23.0 mph 32.2 mph 0.00 in Snow Blowing Snow
1:53 PM 10.0 °F -10.4 °F 5.0 °F 80% 30.36 in 5.0 mi NNW 24.2 mph 29.9 mph 0.00 in Snow Blowing Snow
2:53 PM 10.0 °F -10.0 °F 3.9 °F 76% 30.37 in 5.0 mi NNW 23.0 mph - 0.00 in Snow Blowing Snow
3:30 PM 10.4 °F -9.5 °F 3.2 °F 73% 30.26 in 10.0 mi NNW 23.0 mph 27.6 mph N/A   Scattered Clouds
3:53 PM 10.0 °F -8.6 °F 3.0 °F 73% 30.38 in 10.0 mi NW 19.6 mph - N/A   Partly Cloudy
4:23 PM 8.6 °F -10.0 °F 3.2 °F 79% 30.28 in 7.0 mi NW 18.4 mph - 0.00 in Snow Light Snow
4:30 PM 8.6 °F -10.0 °F 3.2 °F 79% 30.28 in 10.0 mi NW 18.4 mph - 0.00 in   Scattered Clouds
4:53 PM 7.0 °F -11.0 °F 1.9 °F 80% 30.39 in 10.0 mi NNW 16.1 mph - 0.00 in   Clear
5:53 PM 5.0 °F -12.3 °F 1.0 °F 84% 30.40 in 10.0 mi NW 13.8 mph - N/A   Clear
6:53 PM 5.0 °F -12.3 °F 1.9 °F 87% 30.39 in 10.0 mi NW 13.8 mph - N/A   Clear
7:53 PM 5.0 °F -10.0 °F 1.9 °F 87% 30.37 in 10.0 mi NW 10.4 mph - N/A   Clear
8:53 PM 3.0 °F -10.5 °F 1.0 °F 91% 30.35 in 10.0 mi NW 8.1 mph - N/A   Clear
9:53 PM 3.9 °F -6.9 °F 1.0 °F 88% 30.34 in 10.0 mi West 5.8 mph - N/A   Mostly Cloudy
10:53 PM 1.0 °F -12.9 °F -2.9 °F 83% 30.31 in 10.0 mi SW 8.1 mph - N/A   Overcast
11:36 PM -0.4 °F -16.7 °F -4.0 °F 85% 30.17 in 10.0 mi SW 10.4 mph - N/A   Scattered Clouds
11:53 PM -0.0 °F -16.3 °F -5.1 °F 79% 30.28 in 10.0 mi WSW 10.4 mph - N/A   Clear